{"data":{"norad_id":85373,"intl_designator":"","name":"UNKNOWN","alt_names":[],"object_type":"UNKNOWN","status":"UNKNOWN","operator":null,"country":null,"launch_date":null,"launch_site_code":null,"launch_vehicle":null,"mission":null,"orbit_class":"UNKNOWN","rcs_meters":null,"size_class":null,"mass_kg":null,"dimensions":null,"purposes":[],"wikipedia_slug":null,"has_3d_model":false,"image_url":null,"decayed_at":null,"tle_current":{"epoch":"2026-09-18T11:46:22.812384Z","epoch_age_seconds":191955,"freshness":"STALE","line1":"1 85373U          26261.49054181  .00001876  00000+0  12722-2 0  9992","line2":"2 85373 100.4122 341.4227 0049276 221.2119 151.3753 14.01178577651296","mean_motion":14.01178577,"eccentricity":0.0049276,"inclination_deg":100.4122,"raan_deg":341.4227,"arg_perigee_deg":221.2119,"mean_anomaly_deg":151.3753,"bstar":0.0012722,"rev_number":65129,"period_min":102.77062635964,"perigee_km":853.90371958568,"apogee_km":925.52987231554,"semimajor_km":7267.8537959506,"source":"CELESTRAK","updated_at":"2026-09-20T09:00:32.448415Z"}}}